CPA362 VHHH-PHNL

Flight info

Callsign CPA362
Flight time N/A
Altitude 33000
Route DALOL V642 NOMAN M501 OMDOB DCT 19N130E DCT KEITH DCT VASKO DCT 29N150E/N0496F350 32N160E 32N170E 30N180E/N0486F370 26N170W DCT CANON BOOKE8
Aircraft B77W/H-SDE1E2E3FGHIJ2J3J4J5M1RWXY/LB1D1

Departure

Time 2026-05-04 21:46
Airport Hong Kong International Airport (VHHH)

Arrival

Time N/A
Airport Daniel K. Inouye International Airport (PHNL)
Time Latitude Longitude Altitude Speed Heading
2026-05-04 21:24 22.31174 113.92774 42 ft 0 kts 295°
2026-05-04 21:28 22.31169 113.92784 42 ft 3 kts 295°
2026-05-04 21:28 22.31162 113.92801 40 ft 3 kts 295°
2026-05-04 21:28 22.31154 113.92818 37 ft 3 kts 295°
2026-05-04 21:28 22.31147 113.92835 39 ft 3 kts 295°
2026-05-04 21:29 22.31139 113.92852 39 ft 3 kts 295°
2026-05-04 21:29 22.31132 113.92869 38 ft 3 kts 295°
2026-05-04 21:29 22.31124 113.92886 39 ft 3 kts 295°
2026-05-04 21:29 22.31119 113.92898 39 ft 0 kts 295°
2026-05-04 21:36 22.31119 113.92882 39 ft 3 kts 257°
2026-05-04 21:37 22.31119 113.92881 39 ft 0 kts 257°
2026-05-04 21:37 22.31112 113.92870 37 ft 4 kts 235°
2026-05-04 21:37 22.31067 113.92834 41 ft 12 kts 210°
2026-05-04 21:37 22.30976 113.92784 41 ft 17 kts 204°
2026-05-04 21:38 22.30907 113.92751 42 ft 14 kts 204°
2026-05-04 21:38 22.30827 113.92666 41 ft 20 kts 246°
2026-05-04 21:38 22.30773 113.92505 42 ft 26 kts 251°
2026-05-04 21:38 22.30741 113.92403 42 ft 9 kts 253°
2026-05-04 21:39 22.30762 113.92345 42 ft 9 kts 322°
2026-05-04 21:39 22.30894 113.92293 42 ft 32 kts 341°
2026-05-04 21:39 22.31132 113.92204 42 ft 36 kts 341°
2026-05-04 21:39 22.31361 113.92118 42 ft 33 kts 340°
2026-05-04 21:40 22.31528 113.92055 41 ft 20 kts 340°
2026-05-04 21:40 22.31610 113.91973 41 ft 18 kts 265°
2026-05-04 21:40 22.31572 113.91847 41 ft 18 kts 249°
2026-05-04 21:40 22.31531 113.91723 41 ft 18 kts 252°
2026-05-04 21:41 22.31492 113.91597 42 ft 18 kts 251°
2026-05-04 21:41 22.31452 113.91472 42 ft 18 kts 251°
2026-05-04 21:41 22.31412 113.91346 42 ft 18 kts 251°
2026-05-04 21:41 22.31371 113.91223 43 ft 18 kts 250°
2026-05-04 21:42 22.31329 113.91098 42 ft 18 kts 250°
2026-05-04 21:42 22.31291 113.90972 42 ft 18 kts 250°
2026-05-04 21:42 22.31249 113.90848 42 ft 18 kts 250°
2026-05-04 21:42 22.31208 113.90723 42 ft 18 kts 250°
2026-05-04 21:43 22.31169 113.90600 41 ft 18 kts 251°
2026-05-04 21:43 22.31129 113.90475 41 ft 18 kts 251°
2026-05-04 21:43 22.31090 113.90350 41 ft 18 kts 251°
2026-05-04 21:43 22.31050 113.90225 41 ft 18 kts 251°
2026-05-04 21:44 22.31010 113.90100 41 ft 18 kts 251°
2026-05-04 21:44 22.30969 113.89976 41 ft 18 kts 250°
2026-05-04 21:44 22.30928 113.89852 41 ft 18 kts 251°
2026-05-04 21:44 22.30901 113.89767 42 ft 5 kts 251°
2026-05-04 21:45 22.30897 113.89732 41 ft 5 kts 283°
2026-05-04 21:45 22.30975 113.89681 41 ft 24 kts 349°
2026-05-04 21:45 22.31070 113.89719 39 ft 13 kts 63°
2026-05-04 21:45 22.31111 113.89845 41 ft 29 kts 71°
2026-05-04 21:46 22.31249 113.90276 40 ft 96 kts 70°
2026-05-04 21:46 22.31544 113.91189 44 ft 159 kts 70°
2026-05-04 21:46 22.31960 113.92487 111 ft 197 kts 72°
2026-05-04 21:46 22.32389 113.93830 826 ft 184 kts 72°
2026-05-04 21:47 22.32819 113.95176 1302 ft 195 kts 72°
2026-05-04 21:47 22.33254 113.96584 1816 ft 197 kts 76°
2026-05-04 21:47 22.33583 113.98045 2240 ft 204 kts 82°
2026-05-04 21:47 22.33790 113.99565 2696 ft 207 kts 86°
2026-05-04 21:48 22.33880 114.01109 3163 ft 207 kts 90°
2026-05-04 21:48 22.33924 114.02706 3450 ft 218 kts 89°
2026-05-04 21:48 22.33949 114.04362 3873 ft 220 kts 92°
2026-05-04 21:48 22.33831 114.06014 4288 ft 223 kts 96°
2026-05-04 21:49 22.33604 114.07732 4445 ft 239 kts 104°
2026-05-04 21:49 22.33180 114.09532 4666 ft 256 kts 106°
2026-05-04 21:49 22.32436 114.11326 4851 ft 267 kts 133°
2026-05-04 21:49 22.30996 114.12524 5314 ft 268 kts 161°
2026-05-04 21:50 22.29174 114.12957 5814 ft 270 kts 178°
2026-05-04 21:50 22.27277 114.13096 6404 ft 275 kts 179°
2026-05-04 21:50 22.25353 114.13203 7023 ft 277 kts 179°
2026-05-04 21:50 22.23434 114.13309 7718 ft 276 kts 180°
2026-05-04 21:51 22.21517 114.13551 8163 ft 283 kts 162°
2026-05-04 21:51 22.19901 114.14745 8580 ft 293 kts 130°
2026-05-04 21:51 22.18851 114.16632 9133 ft 296 kts 120°
2026-05-04 21:51 22.17875 114.18626 9632 ft 302 kts 121°
2026-05-04 21:52 22.16843 114.20605 10230 ft 303 kts 123°
2026-05-04 21:52 22.15736 114.22579 10551 ft 316 kts 124°
2026-05-04 21:52 22.14508 114.24637 10698 ft 335 kts 126°
2026-05-04 21:52 22.13171 114.26785 10879 ft 354 kts 127°
2026-05-04 21:53 22.11731 114.29028 11036 ft 373 kts 128°
2026-05-04 21:53 22.10207 114.31357 11422 ft 384 kts 128°
2026-05-04 21:53 22.08669 114.33682 12040 ft 388 kts 128°
2026-05-04 21:53 22.07079 114.36071 12634 ft 395 kts 128°
2026-05-04 21:54 22.05464 114.38487 13264 ft 400 kts 128°
2026-05-04 21:54 22.03824 114.40933 13883 ft 404 kts 128°
2026-05-04 21:54 22.02159 114.43413 14419 ft 409 kts 128°
2026-05-04 21:54 22.00482 114.45909 14988 ft 413 kts 128°
2026-05-04 21:55 21.98807 114.48401 15525 ft 417 kts 128°
2026-05-04 21:55 21.97092 114.50950 16035 ft 423 kts 128°
2026-05-04 21:55 21.95358 114.53528 16575 ft 427 kts 128°
2026-05-04 21:55 21.93601 114.56138 17065 ft 432 kts 128°
2026-05-04 21:56 21.91823 114.58779 17542 ft 438 kts 128°
2026-05-04 21:56 21.90020 114.61456 18020 ft 443 kts 128°
2026-05-04 21:56 21.88199 114.64158 18473 ft 448 kts 129°
2026-05-04 21:56 21.86364 114.66880 18891 ft 452 kts 129°
2026-05-04 21:57 21.84504 114.69637 19314 ft 456 kts 129°
2026-05-04 21:57 21.82630 114.72415 19748 ft 460 kts 129°
2026-05-04 21:57 21.80766 114.75175 20179 ft 463 kts 129°
2026-05-04 21:57 21.78862 114.77996 20613 ft 467 kts 129°
2026-05-04 21:58 21.76944 114.80834 21028 ft 471 kts 129°
2026-05-04 21:58 21.75007 114.83698 21441 ft 475 kts 129°
2026-05-04 21:58 21.73037 114.86571 21889 ft 477 kts 130°
2026-05-04 21:58 21.71009 114.89425 22306 ft 480 kts 131°
2026-05-04 21:59 21.68986 114.92236 22729 ft 483 kts 131°
2026-05-04 21:59 21.66899 114.95144 23135 ft 487 kts 131°
2026-05-04 21:59 21.64830 114.98044 23539 ft 490 kts 131°
2026-05-04 21:59 21.62778 115.00927 23878 ft 493 kts 131°
2026-05-04 22:00 21.60690 115.03865 24214 ft 495 kts 131°
2026-05-04 22:00 21.58591 115.06818 24549 ft 498 kts 131°
2026-05-04 22:00 21.56476 115.09794 24878 ft 501 kts 130°
2026-05-04 22:00 21.54351 115.12781 25136 ft 505 kts 131°
2026-05-04 22:01 21.52237 115.15748 25384 ft 508 kts 131°
2026-05-04 22:01 21.50084 115.18774 25743 ft 510 kts 131°
2026-05-04 22:01 21.47923 115.21814 26083 ft 512 kts 131°
2026-05-04 22:01 21.45755 115.24864 26398 ft 514 kts 130°
2026-05-04 22:02 21.43575 115.27931 26670 ft 517 kts 131°
2026-05-04 22:02 21.41385 115.31009 26943 ft 520 kts 131°
2026-05-04 22:02 21.39185 115.34100 27238 ft 522 kts 131°
2026-05-04 22:02 21.36974 115.37204 27535 ft 524 kts 131°
2026-05-04 22:03 21.34753 115.40321 27838 ft 526 kts 131°
2026-05-04 22:03 21.32519 115.43453 28098 ft 529 kts 131°
2026-05-04 22:03 21.30305 115.46555 28358 ft 531 kts 131°
2026-05-04 22:03 21.28059 115.49702 28600 ft 533 kts 131°
2026-05-04 22:04 21.25797 115.52868 28853 ft 535 kts 131°
2026-05-04 22:04 21.23527 115.56045 29096 ft 537 kts 131°
2026-05-04 22:04 21.21253 115.59225 29334 ft 538 kts 131°